Showing default

MKA PN2 (RELEK), 40070

Orbit data source: Space-Track

MKA PN2 (RELEK), 40070 is a Commonwealth of Independent States-origin payload satellite in SSO that was launched on Tue, 08 Jul 2014 UTC via a SOYUZ-2-1B launch vehicle from the Tyuratam Missile And Space Complex (TTMTR). Payload-class satellites include a variety of spacecraft equipped with specific instruments for various scientific and technological missions. These include communications satellites like Starlink; space stations such as the ISS; scientific satellites like the Hubble; Earth observation satellites from companies like Planet Labs, Umbra, and HawkEye 360; GPS; miniature CubeSats for education and research; and military/defense satellites.

Loading next visibility...
Identifier
40070, 2014-037B
Orbit
SSO
Last TLE update
5 hours ago
Origin
Manufacturer
Lavochkin
Mission
Non-operational Civil Science
Bus & Motor
KARAT, Unknown motor
Mass
288 kg wet, 288 kg dry
Launch date (UTC)
2014-07-08 (11 years ago)
Launch vehicle
SOYUZ-2-1B
Launch site
Tyuratam Missile And Space Complex (TTMTR)
Object type
Payload
Rocket body
Debris
Shape & HBR
Box, 1 m
Radar Cross Section
1.500 m², Large (>1 m²)

Expand to show TLE details & history

TLE from 5 hours ago
0 MKA PN2 (RELEK)
1 40070U 14037B   25186.51612894  .00000675  00000-0  14921-3 0  9992
2 40070  98.0294 171.7737 0132753  66.7811 294.7303 14.55049663582756
Epoch: 2025-07-05T12:23Z
TLE epoch observation values (Epoch: 2025-07-05T12:23:13.54Z)
Latitude
-0.00005°
Longitude
62.21424°
Altitude
673.858 km
Speed
7.54 km/s
True Right ascension
11h 27m 05s
True Declination
0° 00' 00"
Sunlit
Object was in daylight at epoch
Visualization orbit readout
Latitude
6.49646°
Longitude
61.49827°
Altitude
662.889 km
Speed
7.552 km/s
Apparent Right ascension
13h 41m 58s
Apparent Declination
-20° 44' 27"
Sunlit
Object is in daylight
Visualization observer readout
Local Sidereal Time
05:17:25
Azimuth
83.784° E
Elevation
-40.559°
Doppler factor
1
Orbital elements
Apogee altitude
800.331 km
Perigee altitude
612.235 km
Semi-major axis
7,084.42 km
Eccentricity
0.01328
Inclination
98.0294°
RAAN
171.7737°
Arg. of periapsis
66.7811°
True anomaly
Unknown
Mean anomaly
294.7303°
Eccentric anomaly
Unknown
Mean motion
3.63988 °/min
Orbital period
98.9 mins
BSTAR
0.00014921
Loading maneuver chart data...
Loading SW <> Apogee altitude chart data...
Loading historical data...
Loading historical data...
Loading historical data...
Loading historical data...
Loading historical data...
Loading historical data...
Loading historical data...

MKA PN2 (RELEK) Visibility forecast

Observer location: undefined°, undefined°

Span
Click to sort rows by Start time (UTC) header in descending order
Start Az.
Max El. time (UTC)
Max El. Az.
Max El.
End time (UTC)
End Az.
7 mins2025-07-05 22:25:04.104Z134.594° SE2025-07-05 22:29:04.104Z61.471° ENE29.244°2025-07-05 22:32:04.104Z9.611° NNE
4 mins2025-07-06 00:05:04.104Z236.935° WSW2025-07-06 00:07:04.104Z271.364° WNW17.638°2025-07-06 00:09:04.104Z302.997° NW
7 mins2025-07-06 12:04:04.104Z6.862° NNE2025-07-06 12:07:04.104Z282.31° WNW44.085°2025-07-06 12:11:04.104Z200.555° SSW
|